FW4287 Weather Reports


Display with metric or nautical units.
time (UTC)temp
F
wind
direction
speed
MPH
gust
MPH
rain 1hr
in
rain 24hr
in
rain mn
in
humidity
%
barometer
mb
20260906064531 51 45 0.0 2.0 0.00 0.06 0.06 94 1017.7
20260906063029 51 45 0.0 2.0 0.00 0.06 0.06 94 1017.8
20260906061529 51 74 1.0 3.0 0.00 0.06 0.06 94 1017.8
20260906060103 52 90 0.0 1.0 0.00 0.06 0.06 93 1017.9
20260906054531 52 112 0.0 2.0 0.00 0.06 0.06 93 1017.9
20260906053032 53 167 1.0 6.0 0.00 0.06 0.06 93 1018.0
20260906051533 52 245 0.0 5.0 0.00 0.06 0.06 93 1018.1
20260906050107 53 91 0.0 4.0 0.00 0.06 0.06 93 1018.1
20260906043030 54 129 3.0 6.0 0.00 0.06 0.06 93 1018.2
20260906040029 54 116 5.0 8.0 0.00 0.06 0.06 93 1018.1
20260906034532 53 109 4.0 7.0 0.00 0.06 0.06 94 1018.0
20260906033028 53 100 0.0 6.0 0.00 0.06 0.06 94 1017.8
20260906031530 54 112 0.0 0.0 0.00 0.06 0.06 93 1017.7
20260906030029 54 112 0.0 2.0 0.00 0.06 0.06 92 1017.6
20260906024532 55 112 0.0 0.0 0.00 0.06 0.06 90 1017.7
20260906023030 57 140 0.0 3.0 0.00 0.06 0.06 88 1017.7
20260906021529 59 172 0.0 1.0 0.00 0.06 0.06 86 1017.7
20260906020029 61 157 0.0 0.0 0.00 0.06 0.06 85 1017.6
20260906014529 61 144 0.0 0.0 0.00 0.06 0.06 83 1017.5
20260906013030 61 157 1.0 4.0 0.00 0.06 0.06 84 1017.7
20260906011603 62 164 1.0 3.0 0.01 0.06 0.06 80 1017.8
20260906004537 60 157 3.0 5.0 0.04 0.06 0.06 82 1018.1
20260906000145 58 100 6.0 11.0 0.02 0.03 0.02 87 1018.2
20260905234529 58 152 5.0 9.0 0.02 0.02 0.02 88 1018.3
20260905233029 58 143 4.0 7.0 0.02 0.02 0.02 89 1018.1
20260905231603 58 162 3.0 6.0 0.02 0.02 0.01 86 1018.1
20260905230029 58 215 4.0 13.0 0.01 0.01 0.00 79 1018.1
20260905224530 62 196 6.0 12.0 0.00 0.00 0.00 66 1018.0
20260905223147 63 274 2.0 5.0 0.00 0.00 0.00 63 1017.9
20260905221606 64 307 4.0 7.0 0.00 0.00 0.00 62 1017.7
20260905214603 63 291 4.0 7.0 0.00 0.00 0.00 64 1017.9
20260905210029 62 251 2.0 4.0 0.00 0.00 0.00 68 1018.3
20260905204606 61 174 2.0 5.0 0.00 0.00 0.00 70 1018.4
20260905203031 61 210 3.0 5.0 0.00 0.00 0.00 71 1018.5
20260905201527 61 262 3.0 11.0 0.00 0.00 0.00 70 1018.4
20260905200029 61 266 3.0 7.0 0.00 0.00 0.00 69 1018.5
20260905194531 61 244 2.0 7.0 0.00 0.00 0.00 71 1018.6
20260905193030 59 273 3.0 6.0 0.00 0.00 0.00 73 1018.8
20260905190029 58 294 4.0 9.0 0.00 0.00 0.00 74 1018.9
20260905183030 59 290 6.0 9.0 0.00 0.00 0.00 76 1019.1
20260905181531 59 306 5.0 9.0 0.00 0.00 0.00 78 1019.1
20260905180031 58 321 4.0 7.0 0.00 0.00 0.00 83 1019.3
20260905174529 56 14 3.0 6.0 0.00 0.00 0.00 85 1019.3
20260905173030 55 38 2.0 4.0 0.00 0.00 0.00 86 1019.3
20260905171604 55 45 1.0 3.0 0.00 0.00 0.00 88 1019.3
20260905164530 54 225 0.0 0.0 0.00 0.00 0.00 90 1019.2
20260905163107 54 225 0.0 0.0 0.00 0.00 0.00 91 1019.2
20260905161529 53 225 0.0 2.0 0.00 0.00 0.00 92 1019.1
20260905160105 52 225 0.0 2.0 0.00 0.00 0.00 94 1019.1
20260905154605 51 225 0.0 0.0 0.00 0.00 0.00 97 1019.1
20260905153031 51 225 0.0 0.0 0.00 0.00 0.00 98 1019.1
20260905151530 50 231 0.0 2.0 0.00 0.00 0.00 99 1019.1
20260905150105 49 230 0.0 3.0 0.00 0.00 0.00 99 1019.0
20260905144605 49 183 0.0 3.0 0.00 0.00 0.00 99 1018.9
20260905141532 49 180 0.0 1.0 0.00 0.00 0.00 99 1018.8
20260905140031 48 199 3.0 5.0 0.00 0.00 0.00 99 1018.6
20260905134530 48 250 1.0 4.0 0.00 0.00 0.00 99 1018.5
20260905131646 47 160 0.0 3.0 0.00 0.00 0.00 99 1018.2
20260905130031 48 157 0.0 2.0 0.00 0.00 0.00 99 1018.2
20260905124602 48 157 0.0 0.0 0.00 0.00 0.00 98 1018.3
20260905121529 48 112 0.0 0.0 0.00 0.00 0.00 98 1018.3
20260905120104 48 125 1.0 4.0 0.00 0.00 0.00 98 1018.4
20260905114532 48 336 0.0 3.0 0.00 0.00 0.00 98 1018.2
20260905110028 49 337 0.0 0.0 0.00 0.00 0.00 98 1018.1
20260905104530 49 337 0.0 0.0 0.00 0.00 0.00 98 1018.1
20260905103032 49 337 0.0 0.0 0.00 0.00 0.00 97 1018.1
20260905094530 50 34 0.0 2.0 0.00 0.00 0.00 97 1018.1
20260905093031 50 47 0.0 0.0 0.00 0.00 0.00 97 1018.2
20260905091531 50 90 0.0 4.0 0.00 0.00 0.00 97 1018.1
20260905090031 51 337 0.0 0.0 0.00 0.00 0.00 97 1018.1
20260905084530 51 337 0.0 0.0 0.00 0.00 0.00 97 1018.0
20260905083104 51 337 0.0 1.0 0.00 0.00 0.00 97 1017.9
20260905081530 51 337 0.0 0.0 0.00 0.00 0.00 96 1017.9
20260905080032 51 337 0.0 0.0 0.00 0.00 0.00 96 1017.8
20260905074531 51 337 0.0 0.0 0.00 0.00 0.00 96 1017.6